User: anonymous   Login
Location: Lamoine Observatory
(44.4551°N, 68.3470°W)
Time: 04:57:09
(UTC-04:00)
Language:

Cosmos 1674 Rocket - Orbit

View from above orbital plane
View from above orbital plane
View from above satellite
View from above satellite

Ground track
Ground track

The orbit data is extracted from the following two-line orbital elements,

1 15945U 85069B   18111.77723712 +.00000083 +00000-0 +71108-5 0  9993
2 15945 082.5305 204.0109 0019317 348.2247 011.8514 14.83967550766799
Epoch (UTC): 21 April 2018 18:39:13
Eccentricity: 0.0019317
inclination: 82.5305°
perigee height: 603 km
apogee height: 630 km
right ascension of ascending node: 204.0109°
argument of perigee: 348.2247°
revolutions per day: 14.83967550
mean anomaly at epoch: 11.8514°
orbit number at epoch: 76679

The dashed part of the orbit path shows where the satellite is in the earth's shadow,  

DLR